EN

Hourly Weather Lugan

Today, 27 November, Friday

Time Temperature Precipitation Wind Pressure Humidity
00:00 +2°C° 0 mm 1 mps 769 mmHg 80%
01:00 +2°C° 0 mm 1 mps 769 mmHg 81%
02:00 -1°C° 0 mm 2 mps 769 mmHg 81%
03:00 -1°C° 0 mm 2 mps 769 mmHg 84%
04:00 -1°C° 0 mm 2 mps 769 mmHg 84%
05:00 -1°C° 0 mm 2 mps 769 mmHg 84%
06:00 -1°C° 0 mm 2 mps 769 mmHg 84%
07:00 0°C° 0 mm 3 mps 769 mmHg 83%
08:00 0°C° 0 mm 3 mps 769 mmHg 81%
09:00 0°C° 0 mm 3 mps 769 mmHg 79%
10:00 +1°C° 0 mm 3 mps 769 mmHg 74%
11:00 +3°C° 0 mm 3 mps 769 mmHg 69%
12:00 +4°C° 0 mm 4 mps 768 mmHg 64%
13:00 +4°C° 0 mm 3 mps 768 mmHg 64%
14:00 +5°C° 0 mm 3 mps 768 mmHg 64%
15:00 +5°C° 0 mm 3 mps 767 mmHg 63%
16:00 +4°C° 0 mm 3 mps 767 mmHg 68%
17:00 +3°C° 0 mm 3 mps 767 mmHg 73%
18:00 +3°C° 0 mm 3 mps 767 mmHg 77%
19:00 +2°C° 0 mm 3 mps 767 mmHg 78%
20:00 +2°C° 0 mm 3 mps 767 mmHg 79%
21:00 +2°C° 0 mm 3 mps 767 mmHg 80%
22:00 +2°C° 0 mm 3 mps 767 mmHg 80%
23:00 +2°C° 0 mm 3 mps 767 mmHg 81%

Tomorrow, 28 November, Saturday

Time Temperature Precipitation Wind Pressure Humidity
00:00 +3°C° 0 mm 2 mps 767 mmHg 82%
01:00 +3°C° 0 mm 2 mps 767 mmHg 83%
02:00 +1°C° 0 mm 3 mps 767 mmHg 84%
03:00 +1°C° 0 mm 3 mps 767 mmHg 85%
04:00 +1°C° 0 mm 3 mps 767 mmHg 85%
05:00 +1°C° 0 mm 3 mps 767 mmHg 86%
06:00 +1°C° 0 mm 3 mps 767 mmHg 86%
07:00 +2°C° 0 mm 3 mps 767 mmHg 85%
08:00 +2°C° 0 mm 3 mps 767 mmHg 85%
09:00 +2°C° 0 mm 3 mps 768 mmHg 85%
10:00 +4°C° 0 mm 3 mps 767 mmHg 79%
11:00 +5°C° 0 mm 3 mps 767 mmHg 73%
12:00 +8°C° 0 mm 3 mps 767 mmHg 68%
13:00 +8°C° 0 mm 3 mps 767 mmHg 66%
14:00 +9°C° 0 mm 3 mps 767 mmHg 65%
15:00 +9°C° 0 mm 3 mps 767 mmHg 63%
16:00 +8°C° 0 mm 3 mps 766 mmHg 66%
17:00 +5°C° 0 mm 4 mps 766 mmHg 68%
18:00 +4°C° 0 mm 4 mps 766 mmHg 71%
19:00 +4°C° 0 mm 4 mps 766 mmHg 75%
20:00 +3°C° 0 mm 4 mps 766 mmHg 78%
21:00 +3°C° 0 mm 4 mps 766 mmHg 82%
22:00 +3°C° 0 mm 4 mps 766 mmHg 85%
23:00 +3°C° 0 mm 4 mps 766 mmHg 89%

Day after tomorrow, 29 November, Sunday

Time Temperature Precipitation Wind Pressure Humidity
00:00 +3°C° 0 mm 4 mps 766 mmHg 92%
01:00 +3°C° 0 mm 4 mps 766 mmHg 93%
02:00 +1°C° 0 mm 4 mps 766 mmHg 94%
03:00 +1°C° 0 mm 4 mps 766 mmHg 95%
04:00 +3°C° 0 mm 4 mps 766 mmHg 95%
05:00 +2°C° 0 mm 5 mps 766 mmHg 95%
06:00 +2°C° 0 mm 5 mps 766 mmHg 94%
07:00 +2°C° 0 mm 6 mps 766 mmHg 93%
08:00 +3°C° 0 mm 6 mps 766 mmHg 91%
09:00 +3°C° 0 mm 6 mps 767 mmHg 90%
10:00 +4°C° 0 mm 6 mps 767 mmHg 85%
11:00 +5°C° 0 mm 6 mps 767 mmHg 81%
12:00 +8°C° 0 mm 6 mps 767 mmHg 77%
13:00 +8°C° 0 mm 6 mps 767 mmHg 74%
14:00 +8°C° 0 mm 6 mps 767 mmHg 72%
15:00 +9°C° 0 mm 5 mps 767 mmHg 70%
16:00 +8°C° 0 mm 5 mps 767 mmHg 74%
17:00 +7°C° 0 mm 4 mps 767 mmHg 79%
18:00 +6°C° 0 mm 4 mps 767 mmHg 83%
19:00 +5°C° 0 mm 4 mps 767 mmHg 86%
20:00 +5°C° 0 mm 4 mps 767 mmHg 89%
21:00 +5°C° 0 mm 4 mps 767 mmHg 91%
22:00 +5°C° 0 mm 4 mps 767 mmHg 92%
23:00 +4°C° 0 mm 4 mps 767 mmHg 92%

30 November, Monday

Time Temperature Precipitation Wind Pressure Humidity
00:00 +4°C° 0 mm 4 mps 767 mmHg 93%
01:00 +3°C° 0 mm 5 mps 767 mmHg 92%
02:00 +3°C° 0 mm 5 mps 767 mmHg 92%
03:00 +3°C° 0 mm 5 mps 767 mmHg 91%
04:00 +3°C° 0 mm 5 mps 767 mmHg 89%
05:00 +3°C° 0 mm 5 mps 767 mmHg 87%
06:00 +3°C° 0 mm 6 mps 767 mmHg 85%
07:00 +3°C° 0 mm 6 mps 767 mmHg 81%
08:00 +3°C° 0 mm 6 mps 767 mmHg 77%
09:00 +4°C° 0 mm 7 mps 767 mmHg 72%
10:00 +5°C° 0 mm 7 mps 767 mmHg 70%
11:00 +5°C° 0 mm 8 mps 767 mmHg 68%
12:00 +6°C° 0 mm 8 mps 767 mmHg 66%
13:00 +6°C° 0 mm 8 mps 767 mmHg 66%
14:00 +6°C° 0 mm 8 mps 766 mmHg 66%
15:00 +6°C° 0 mm 8 mps 766 mmHg 66%
16:00 +5°C° 0 mm 8 mps 766 mmHg 67%
17:00 +5°C° 0 mm 8 mps 766 mmHg 68%
18:00 +4°C° 0 mm 8 mps 767 mmHg 69%
19:00 +2°C° 0 mm 8 mps 767 mmHg 69%
20:00 +2°C° 0 mm 8 mps 767 mmHg 69%
21:00 +1°C° 0 mm 8 mps 767 mmHg 68%
22:00 +1°C° 0 mm 8 mps 767 mmHg 69%
23:00 +1°C° 0 mm 8 mps 767 mmHg 69%

1 December, Tuesday

Time Temperature Precipitation Wind Pressure Humidity
00:00 +1°C° 0 mm 8 mps 767 mmHg 69%
01:00 +1°C° 0 mm 8 mps 766 mmHg 69%
02:00 +1°C° 0 mm 8 mps 766 mmHg 69%
03:00 +1°C° 0 mm 8 mps 766 mmHg 69%
04:00 +1°C° 0 mm 8 mps 766 mmHg 70%
05:00 +1°C° 0 mm 8 mps 766 mmHg 70%
06:00 +1°C° 0 mm 8 mps 766 mmHg 71%
07:00 +1°C° 0 mm 9 mps 766 mmHg 70%
08:00 +1°C° 0 mm 9 mps 766 mmHg 70%
09:00 +1°C° 0 mm 9 mps 766 mmHg 70%
10:00 +2°C° 0 mm 9 mps 766 mmHg 69%
11:00 +2°C° 0 mm 9 mps 766 mmHg 68%
12:00 +2°C° 0 mm 9 mps 766 mmHg 67%
13:00 +2°C° 0 mm 9 mps 766 mmHg 67%
14:00 +2°C° 0 mm 9 mps 766 mmHg 67%
15:00 +2°C° 0 mm 9 mps 766 mmHg 68%
16:00 +2°C° 0 mm 9 mps 766 mmHg 69%
17:00 +2°C° 0 mm 8 mps 766 mmHg 71%
18:00 +1°C° 0 mm 8 mps 766 mmHg 72%
19:00 +1°C° 0 mm 8 mps 766 mmHg 73%
20:00 +1°C° 0 mm 8 mps 766 mmHg 73%
21:00 0°C° 0 mm 8 mps 766 mmHg 74%
22:00 0°C° 0 mm 7 mps 766 mmHg 75%
23:00 0°C° 0 mm 7 mps 766 mmHg 76%

2 December, Wednesday

Time Temperature Precipitation Wind Pressure Humidity
00:00 0°C° 0 mm 7 mps 766 mmHg 76%
01:00 -1°C° 0 mm 6 mps 766 mmHg 78%
02:00 -1°C° 0 mm 6 mps 766 mmHg 80%
03:00 -1°C° 0 mm 6 mps 766 mmHg 81%
04:00 -1°C° 0 mm 6 mps 766 mmHg 81%
05:00 -1°C° 0 mm 6 mps 766 mmHg 81%
06:00 -1°C° 0 mm 7 mps 766 mmHg 80%
07:00 -1°C° 0 mm 7 mps 766 mmHg 80%
08:00 -1°C° 0 mm 7 mps 766 mmHg 81%
09:00 -1°C° 0 mm 7 mps 766 mmHg 81%
10:00 0°C° 0 mm 7 mps 766 mmHg 80%
11:00 0°C° 0 mm 7 mps 766 mmHg 79%
12:00 0°C° 0 mm 7 mps 766 mmHg 78%
13:00 +2°C° 0 mm 7 mps 766 mmHg 78%
14:00 +2°C° 0 mm 7 mps 766 mmHg 77%
15:00 +2°C° 0 mm 7 mps 765 mmHg 77%
16:00 +2°C° 0 mm 7 mps 765 mmHg 78%
17:00 0°C° 0 mm 7 mps 766 mmHg 78%
18:00 0°C° 0 mm 7 mps 766 mmHg 79%
19:00 0°C° 0 mm 7 mps 766 mmHg 79%
20:00 0°C° 0 mm 7 mps 766 mmHg 80%
21:00 0°C° 0 mm 7 mps 766 mmHg 81%
22:00 0°C° 0 mm 7 mps 766 mmHg 80%
23:00 0°C° 0 mm 7 mps 767 mmHg 80%
Show more